Time,TemperatureF,DewpointF,PressureIn,WindDirection,WindDirectionDegrees,WindSpeedMPH,WindSpeedGustMPH,Humidity,HourlyPrecipIn,Conditions,Clouds,dailyrainin,SoftwareType,DateUTC
2013-04-03 00:03:00,54.0,27.0,30.24,SSE,155,2.0,4.0,35,0.00,,,0.24,,2013-04-03 04:03:00,
2013-04-03 00:12:00,54.0,27.0,30.24,SSE,155,2.0,4.0,35,0.00,,,0.24,,2013-04-03 04:12:00,
2013-04-03 00:23:00,54.0,26.0,30.24,SW,235,4.0,6.0,34,0.00,,,0.24,,2013-04-03 04:23:00,
2013-04-03 00:33:00,53.0,25.0,30.25,NE,53,2.0,3.0,34,0.00,,,0.00,,2013-04-03 04:33:00,
2013-04-03 00:43:00,53.0,25.0,30.25,NE,53,2.0,3.0,34,0.00,,,0.00,,2013-04-03 04:43:00,
2013-04-03 00:53:00,53.0,25.0,30.26,SW,218,3.0,5.0,34,0.00,,,0.00,,2013-04-03 04:53:00,
2013-04-03 01:02:00,53.0,25.0,30.25,NE,53,3.0,8.0,34,0.00,,,0.00,,2013-04-03 05:02:00,
2013-04-03 01:12:00,53.0,25.0,30.25,NE,53,3.0,8.0,34,0.00,,,0.00,,2013-04-03 05:12:00,
2013-04-03 01:22:00,53.0,26.0,30.26,East,80,1.0,4.0,35,0.00,,,0.00,,2013-04-03 05:22:00,
2013-04-03 01:32:00,53.0,27.0,30.27,ESE,113,3.0,6.0,36,0.00,,,0.00,,2013-04-03 05:32:00,
2013-04-03 01:42:00,53.0,27.0,30.27,ESE,113,3.0,6.0,36,0.00,,,0.00,,2013-04-03 05:42:00,
2013-04-03 01:52:00,52.0,25.0,30.27,SE,125,1.0,2.0,35,0.00,,,0.00,,2013-04-03 05:52:00,
2013-04-03 02:02:00,52.0,26.0,30.28,West,278,2.0,5.0,36,0.00,,,0.00,,2013-04-03 06:02:00,
2013-04-03 02:12:00,52.0,26.0,30.28,West,278,2.0,5.0,36,0.00,,,0.00,,2013-04-03 06:12:00,
2013-04-03 02:22:00,52.0,26.0,30.27,East,98,4.0,7.0,36,0.00,,,0.00,,2013-04-03 06:22:00,
2013-04-03 02:32:00,52.0,25.0,30.27,West,269,5.0,7.0,35,0.00,,,0.00,,2013-04-03 06:32:00,
2013-04-03 02:42:00,52.0,25.0,30.27,West,269,5.0,7.0,35,0.00,,,0.00,,2013-04-03 06:42:00,
2013-04-03 02:52:00,52.0,25.0,30.27,North,3,4.0,6.0,35,0.00,,,0.00,,2013-04-03 06:52:00,
2013-04-03 03:02:00,52.0,27.0,30.27,SE,138,0.0,2.0,37,0.00,,,0.00,,2013-04-03 07:02:00,
2013-04-03 03:12:00,52.0,27.0,30.27,SE,138,0.0,2.0,37,0.00,,,0.00,,2013-04-03 07:12:00,
2013-04-03 03:23:00,52.0,27.0,30.27,SSE,150,1.0,3.0,37,0.00,,,0.00,,2013-04-03 07:23:00,
2013-04-03 03:32:00,52.0,28.0,30.27,West,274,0.0,1.0,39,0.00,,,0.00,,2013-04-03 07:32:00,
2013-04-03 03:42:00,52.0,28.0,30.27,West,274,0.0,1.0,39,0.00,,,0.00,,2013-04-03 07:42:00,
2013-04-03 03:53:00,51.0,26.0,30.27,West,281,3.0,6.0,38,0.00,,,0.00,,2013-04-03 07:53:00,
2013-04-03 04:03:00,51.0,26.0,30.27,ENE,77,4.0,8.0,37,0.00,,,0.00,,2013-04-03 08:03:00,
2013-04-03 04:12:00,51.0,26.0,30.27,ENE,77,4.0,8.0,37,0.00,,,0.00,,2013-04-03 08:12:00,
2013-04-03 04:22:00,51.0,26.0,30.27,ENE,65,4.0,7.0,37,0.00,,,0.00,,2013-04-03 08:22:00,
2013-04-03 04:32:00,51.0,26.0,30.27,North,359,0.0,3.0,38,0.00,,,0.00,,2013-04-03 08:32:00,
2013-04-03 04:42:00,51.0,26.0,30.27,North,359,0.0,3.0,38,0.00,,,0.00,,2013-04-03 08:42:00,
2013-04-03 04:52:00,51.0,26.0,30.27,NNE,23,2.0,3.0,37,0.00,,,0.00,,2013-04-03 08:52:00,
2013-04-03 05:02:00,51.0,26.0,30.27,SSE,150,5.0,5.0,37,0.00,,,0.00,,2013-04-03 09:02:00,
2013-04-03 05:12:00,51.0,26.0,30.27,SSE,150,5.0,5.0,37,0.00,,,0.00,,2013-04-03 09:12:00,
2013-04-03 05:22:00,50.0,25.0,30.27,NNW,336,0.0,0.0,38,0.00,,,0.00,,2013-04-03 09:22:00,
2013-04-03 05:33:00,50.0,26.0,30.27,ESE,111,3.0,5.0,39,0.00,,,0.00,,2013-04-03 09:33:00,
2013-04-03 05:43:00,50.0,26.0,30.27,ESE,111,3.0,5.0,39,0.00,,,0.00,,2013-04-03 09:43:00,
2013-04-03 05:53:00,50.0,25.0,30.28,ESE,103,2.0,3.0,38,0.00,,,0.00,,2013-04-03 09:53:00,
2013-04-03 06:03:00,49.0,25.0,30.28,SE,135,3.0,6.0,38,0.00,,,0.00,,2013-04-03 10:03:00,
2013-04-03 06:12:00,49.0,25.0,30.28,SE,135,3.0,6.0,38,0.00,,,0.00,,2013-04-03 10:12:00,
2013-04-03 06:22:00,49.0,25.0,30.29,SE,131,3.0,4.0,39,0.00,,,0.00,,2013-04-03 10:22:00,
2013-04-03 06:33:00,48.0,24.0,30.30,NE,52,3.0,3.0,38,0.00,,,0.00,,2013-04-03 10:33:00,
2013-04-03 06:43:00,48.0,24.0,30.30,NE,52,3.0,3.0,38,0.00,,,0.00,,2013-04-03 10:43:00,
2013-04-03 06:52:00,48.0,23.0,30.29,ENE,72,3.0,5.0,37,0.00,,,0.00,,2013-04-03 10:52:00,
2013-04-03 07:02:00,48.0,24.0,30.31,NE,46,0.0,0.0,38,0.00,,,0.00,,2013-04-03 11:02:00,
2013-04-03 07:12:00,48.0,24.0,30.31,NE,46,0.0,0.0,38,0.00,,,0.00,,2013-04-03 11:12:00,
2013-04-03 07:22:00,47.0,23.0,30.32,North,1,2.0,5.0,39,0.00,,,0.00,,2013-04-03 11:22:00,
2013-04-03 07:32:00,47.0,23.0,30.32,WNW,287,3.0,7.0,38,0.00,,,0.00,,2013-04-03 11:32:00,
2013-04-03 07:42:00,47.0,23.0,30.32,WNW,287,3.0,7.0,38,0.00,,,0.00,,2013-04-03 11:42:00,
2013-04-03 07:52:00,46.0,22.0,30.35,NNW,340,3.0,5.0,38,0.00,,,0.00,,2013-04-03 11:52:00,
2013-04-03 08:02:00,46.0,21.0,30.36,East,79,4.0,7.0,36,0.00,,,0.00,,2013-04-03 12:02:00,
2013-04-03 08:13:00,46.0,21.0,30.36,East,79,4.0,7.0,36,0.00,,,0.00,,2013-04-03 12:13:00,
2013-04-03 08:22:00,47.0,21.0,30.37,East,89,2.0,5.0,36,0.00,,,0.00,,2013-04-03 12:22:00,
2013-04-03 08:33:00,47.0,21.0,30.38,East,94,1.0,3.0,35,0.00,,,0.00,,2013-04-03 12:33:00,
2013-04-03 08:42:00,47.0,21.0,30.38,East,94,1.0,3.0,35,0.00,,,0.00,,2013-04-03 12:42:00,
2013-04-03 08:52:00,48.0,21.0,30.38,East,93,4.0,7.0,34,0.00,,,0.00,,2013-04-03 12:52:00,
2013-04-03 09:02:00,47.0,21.0,30.39,SSE,160,1.0,3.0,35,0.00,,,0.00,,2013-04-03 13:02:00,
2013-04-03 09:12:00,47.0,21.0,30.39,SSE,160,1.0,3.0,35,0.00,,,0.00,,2013-04-03 13:12:00,
2013-04-03 09:22:00,48.0,22.0,30.39,East,90,5.0,9.0,35,0.00,,,0.00,,2013-04-03 13:22:00,
2013-04-03 09:32:00,48.0,22.0,30.39,East,82,5.0,7.0,35,0.00,,,0.00,,2013-04-03 13:32:00,
2013-04-03 09:42:00,48.0,22.0,30.39,East,82,5.0,7.0,35,0.00,,,0.00,,2013-04-03 13:42:00,
2013-04-03 09:52:00,49.0,22.0,30.38,East,101,3.0,5.0,34,0.00,,,0.00,,2013-04-03 13:52:00,
2013-04-03 10:02:00,49.0,23.0,30.37,SE,131,4.0,8.0,35,0.00,,,0.00,,2013-04-03 14:02:00,
2013-04-03 10:12:00,49.0,23.0,30.37,SE,131,4.0,8.0,35,0.00,,,0.00,,2013-04-03 14:12:00,
2013-04-03 10:22:00,49.0,22.0,30.37,SSW,193,5.0,7.0,34,0.00,,,0.00,,2013-04-03 14:22:00,
2013-04-03 10:32:00,49.0,22.0,30.38,SSE,153,6.0,9.0,34,0.00,,,0.00,,2013-04-03 14:32:00,
2013-04-03 10:42:00,49.0,22.0,30.38,SSE,153,6.0,9.0,34,0.00,,,0.00,,2013-04-03 14:42:00,
2013-04-03 10:52:00,50.0,22.0,30.38,SE,124,4.0,5.0,33,0.00,,,0.00,,2013-04-03 14:52:00,
2013-04-03 11:02:00,52.0,24.0,30.38,ENE,77,4.0,6.0,33,0.00,,,0.00,,2013-04-03 15:02:00,
2013-04-03 11:12:00,52.0,24.0,30.38,ENE,77,4.0,6.0,33,0.00,,,0.00,,2013-04-03 15:12:00,
2013-04-03 11:23:00,51.0,22.0,30.37,East,90,5.0,9.0,32,0.00,,,0.00,,2013-04-03 15:23:00,
2013-04-03 11:33:00,52.0,22.0,30.38,SSE,159,6.0,7.0,31,0.00,,,0.00,,2013-04-03 15:33:00,
2013-04-03 11:43:00,52.0,22.0,30.38,SSE,159,6.0,7.0,31,0.00,,,0.00,,2013-04-03 15:43:00,
2013-04-03 11:53:00,54.0,25.0,30.39,WSW,253,4.0,7.0,32,0.00,,,0.00,,2013-04-03 15:53:00,
2013-04-03 12:03:00,54.0,25.0,30.38,SSW,203,5.0,7.0,32,0.00,,,0.00,,2013-04-03 16:03:00,
2013-04-03 12:13:00,54.0,25.0,30.38,SSW,203,5.0,7.0,32,0.00,,,0.00,,2013-04-03 16:13:00,
2013-04-03 12:24:00,54.0,24.0,30.38,East,83,3.0,5.0,31,0.00,,,0.00,,2013-04-03 16:24:00,
2013-04-03 12:33:00,57.0,26.0,30.38,SE,134,2.0,4.0,30,0.00,,,0.00,,2013-04-03 16:33:00,
2013-04-03 12:43:00,57.0,26.0,30.38,SE,134,2.0,4.0,30,0.00,,,0.00,,2013-04-03 16:43:00,
2013-04-03 12:53:00,56.0,25.0,30.37,NW,305,2.0,4.0,30,0.00,,,0.00,,2013-04-03 16:53:00,
2013-04-03 13:03:00,56.0,26.0,30.36,ESE,117,5.0,8.0,31,0.00,,,0.00,,2013-04-03 17:03:00,
2013-04-03 13:13:00,56.0,26.0,30.36,ESE,117,5.0,8.0,31,0.00,,,0.00,,2013-04-03 17:13:00,
2013-04-03 13:23:00,56.0,25.0,30.35,SSW,211,6.0,8.0,30,0.00,,,0.00,,2013-04-03 17:23:00,
2013-04-03 13:33:00,57.0,24.0,30.35,WNW,294,5.0,7.0,28,0.00,,,0.00,,2013-04-03 17:33:00,
2013-04-03 13:46:00,57.0,24.0,30.35,WNW,294,5.0,7.0,28,0.00,,,0.00,,2013-04-03 17:46:00,
2013-04-03 13:53:00,59.0,28.0,30.34,SSE,153,0.0,2.0,30,0.00,,,0.00,,2013-04-03 17:53:00,
2013-04-03 14:02:00,58.0,25.0,30.32,NW,326,0.0,3.0,28,0.00,,,0.00,,2013-04-03 18:02:00,
2013-04-03 14:13:00,58.0,25.0,30.32,NW,326,0.0,3.0,28,0.00,,,0.00,,2013-04-03 18:13:00,
2013-04-03 14:23:00,58.0,27.0,30.32,SW,221,5.0,9.0,30,0.00,,,0.00,,2013-04-03 18:23:00,
2013-04-03 14:33:00,59.0,27.0,30.31,SW,217,5.0,7.0,29,0.00,,,0.00,,2013-04-03 18:33:00,
2013-04-03 14:43:00,59.0,27.0,30.31,SW,217,5.0,7.0,29,0.00,,,0.00,,2013-04-03 18:43:00,
2013-04-03 14:52:00,59.0,26.0,30.31,WSW,239,4.0,8.0,28,0.00,,,0.00,,2013-04-03 18:52:00,
2013-04-03 15:03:00,59.0,26.0,30.31,SSW,204,7.0,10.0,28,0.00,,,0.00,,2013-04-03 19:03:00,
2013-04-03 15:12:00,59.0,26.0,30.31,SSW,204,7.0,10.0,28,0.00,,,0.00,,2013-04-03 19:12:00,
2013-04-03 15:22:00,59.0,26.0,30.31,ESE,113,5.0,9.0,28,0.00,,,0.00,,2013-04-03 19:22:00,
2013-04-03 15:32:00,60.0,27.0,30.31,SSW,201,4.0,7.0,28,0.00,,,0.00,,2013-04-03 19:32:00,
2013-04-03 15:42:00,60.0,27.0,30.31,SSW,201,4.0,7.0,28,0.00,,,0.00,,2013-04-03 19:42:00,
2013-04-03 15:52:00,60.0,28.0,30.30,SE,139,0.0,0.0,29,0.00,,,0.00,,2013-04-03 19:52:00,
2013-04-03 16:02:00,60.0,27.0,30.30,SW,214,3.0,6.0,28,0.00,,,0.00,,2013-04-03 20:02:00,
2013-04-03 16:12:00,60.0,27.0,30.30,SW,214,3.0,6.0,28,0.00,,,0.00,,2013-04-03 20:12:00,
2013-04-03 16:23:00,60.0,26.0,30.30,South,181,6.0,8.0,27,0.00,,,0.00,,2013-04-03 20:23:00,
2013-04-03 16:32:00,60.0,28.0,30.30,ESE,108,3.0,5.0,29,0.00,,,0.00,,2013-04-03 20:32:00,
2013-04-03 16:42:00,60.0,28.0,30.30,ESE,108,3.0,5.0,29,0.00,,,0.00,,2013-04-03 20:42:00,
2013-04-03 16:52:00,60.0,26.0,30.30,SW,225,4.0,5.0,27,0.00,,,0.00,,2013-04-03 20:52:00,
2013-04-03 17:02:00,60.0,27.0,30.30,South,181,3.0,5.0,28,0.00,,,0.00,,2013-04-03 21:02:00,
2013-04-03 17:12:00,60.0,27.0,30.30,South,181,3.0,5.0,28,0.00,,,0.00,,2013-04-03 21:12:00,
2013-04-03 17:22:00,60.0,28.0,30.30,ESE,104,1.0,2.0,29,0.00,,,0.00,,2013-04-03 21:22:00,
2013-04-03 17:33:00,60.0,28.0,30.30,SSE,160,2.0,5.0,29,0.00,,,0.00,,2013-04-03 21:33:00,
2013-04-03 17:42:00,60.0,28.0,30.30,SSE,160,2.0,5.0,29,0.00,,,0.00,,2013-04-03 21:42:00,
2013-04-03 17:52:00,60.0,28.0,30.30,SE,124,2.0,4.0,30,0.00,,,0.00,,2013-04-03 21:52:00,
2013-04-03 18:02:00,60.0,29.0,30.29,SSE,149,2.0,5.0,31,0.00,,,0.00,,2013-04-03 22:02:00,
2013-04-03 18:12:00,60.0,29.0,30.29,SSE,149,2.0,5.0,31,0.00,,,0.00,,2013-04-03 22:12:00,
2013-04-03 18:22:00,60.0,29.0,30.29,SE,129,1.0,4.0,31,0.00,,,0.00,,2013-04-03 22:22:00,
2013-04-03 18:33:00,59.0,28.0,30.29,ESE,118,0.0,0.0,31,0.00,,,0.00,,2013-04-03 22:33:00,
2013-04-03 18:42:00,59.0,28.0,30.29,ESE,118,0.0,0.0,31,0.00,,,0.00,,2013-04-03 22:42:00,
2013-04-03 18:52:00,59.0,29.0,30.29,South,177,2.0,4.0,32,0.00,,,0.00,,2013-04-03 22:52:00,
2013-04-03 19:02:00,59.0,29.0,30.29,SSW,198,3.0,4.0,32,0.00,,,0.00,,2013-04-03 23:02:00,
2013-04-03 19:12:00,59.0,29.0,30.29,SSW,198,3.0,4.0,32,0.00,,,0.00,,2013-04-03 23:12:00,
2013-04-03 19:22:00,59.0,30.0,30.29,ESE,103,0.0,0.0,33,0.00,,,0.00,,2013-04-03 23:22:00,
2013-04-03 19:32:00,58.0,29.0,30.30,ESE,111,2.0,3.0,33,0.00,,,0.00,,2013-04-03 23:32:00,
2013-04-03 19:42:00,58.0,29.0,30.30,ESE,111,2.0,3.0,33,0.00,,,0.00,,2013-04-03 23:42:00,
2013-04-03 19:53:00,58.0,29.0,30.30,SE,128,0.0,0.0,33,0.00,,,0.00,,2013-04-03 23:53:00,
2013-04-03 20:03:00,57.0,30.0,30.31,SE,128,0.0,0.0,36,0.00,,,0.00,,2013-04-04 00:03:00,
2013-04-03 20:12:00,57.0,30.0,30.31,SE,128,0.0,0.0,36,0.00,,,0.00,,2013-04-04 00:12:00,
2013-04-03 20:22:00,57.0,30.0,30.31,SE,128,0.0,0.0,36,0.00,,,0.00,,2013-04-04 00:22:00,
2013-04-03 20:32:00,56.0,31.0,30.31,SE,128,0.0,0.0,39,0.00,,,0.00,,2013-04-04 00:32:00,
2013-04-03 20:43:00,56.0,31.0,30.31,SE,128,0.0,0.0,39,0.00,,,0.00,,2013-04-04 00:43:00,
2013-04-03 20:52:00,55.0,33.0,30.31,SE,128,0.0,0.0,43,0.00,,,0.00,,2013-04-04 00:52:00,
2013-04-03 21:02:00,54.0,32.0,30.33,SE,128,0.0,0.0,43,0.00,,,0.00,,2013-04-04 01:02:00,
2013-04-03 21:12:00,54.0,32.0,30.33,SE,128,0.0,0.0,43,0.00,,,0.00,,2013-04-04 01:12:00,
2013-04-03 21:22:00,54.0,34.0,30.34,SE,128,0.0,0.0,46,0.00,,,0.00,,2013-04-04 01:22:00,
2013-04-03 21:32:00,53.0,32.0,30.35,SE,128,0.0,0.0,45,0.00,,,0.00,,2013-04-04 01:32:00,
2013-04-03 21:43:00,53.0,32.0,30.35,SE,128,0.0,0.0,45,0.00,,,0.00,,2013-04-04 01:43:00,
2013-04-03 21:52:00,53.0,33.0,30.35,SE,128,0.0,0.0,47,0.00,,,0.00,,2013-04-04 01:52:00,
2013-04-03 22:02:00,52.0,33.0,30.36,SE,128,0.0,0.0,48,0.00,,,0.00,,2013-04-04 02:02:00,
2013-04-03 22:12:00,52.0,33.0,30.36,SE,128,0.0,0.0,48,0.00,,,0.00,,2013-04-04 02:12:00,
2013-04-03 22:22:00,52.0,33.0,30.36,SE,128,0.0,0.0,49,0.00,,,0.00,,2013-04-04 02:22:00,
2013-04-03 22:32:00,52.0,35.0,30.37,SE,128,0.0,0.0,52,0.00,,,0.00,,2013-04-04 02:32:00,
2013-04-03 22:42:00,52.0,35.0,30.37,SE,128,0.0,0.0,52,0.00,,,0.00,,2013-04-04 02:42:00,
2013-04-03 22:52:00,52.0,35.0,30.37,SE,128,0.0,0.0,52,0.00,,,0.00,,2013-04-04 02:52:00,
2013-04-03 23:02:00,51.0,34.0,30.39,SE,128,0.0,0.0,52,0.00,,,0.00,,2013-04-04 03:02:00,
2013-04-03 23:12:00,51.0,34.0,30.39,SE,128,0.0,0.0,52,0.00,,,0.00,,2013-04-04 03:12:00,
2013-04-03 23:22:00,52.0,34.0,30.39,SE,128,0.0,0.0,50,0.00,,,0.00,,2013-04-04 03:22:00,
2013-04-03 23:33:00,52.0,34.0,30.39,SE,128,0.0,0.0,51,0.00,,,0.00,,2013-04-04 03:33:00,
2013-04-03 23:45:00,52.0,34.0,30.39,SE,128,0.0,0.0,51,0.00,,,0.00,,2013-04-04 03:45:00,
2013-04-03 23:53:00,52.0,33.0,30.38,SE,128,0.0,0.0,48,0.00,,,0.00,,2013-04-04 03:53:00,